Plot Title: Harvard GSD,,,
#,Date Time,Wind Speed (m/s),Gust Speed (m/s)
1,5/1/2010 0:00,0.9,1.9
2,5/1/2010 0:05,0.7,1.3
3,5/1/2010 0:10,0.7,1.7
4,5/1/2010 0:15,0.9,1.7
5,5/1/2010 0:20,0.7,1.3
6,5/1/2010 0:25,0.7,1.3
7,5/1/2010 0:30,0.4,0.9
8,5/1/2010 0:35,0.2,0.6
9,5/1/2010 0:40,0.2,0.6
10,5/1/2010 0:45,0.4,1.3
11,5/1/2010 0:50,0.6,1.1
12,5/1/2010 0:55,0.4,1.1
13,5/1/2010 1:00,0.4,1.9
14,5/1/2010 1:05,0.9,2
15,5/1/2010 1:10,1.3,2.4
16,5/1/2010 1:15,0.9,2
17,5/1/2010 1:20,0.7,1.7
18,5/1/2010 1:25,0.6,1.5
19,5/1/2010 1:30,0.9,1.9
20,5/1/2010 1:35,1.3,2
21,5/1/2010 1:40,1.1,2.2
22,5/1/2010 1:45,0.9,1.9
23,5/1/2010 1:50,0.6,1.7
24,5/1/2010 1:55,0.6,1.1
25,5/1/2010 2:00,0.2,0.7
26,5/1/2010 2:05,0,0.7
27,5/1/2010 2:10,0,0
28,5/1/2010 2:15,0.6,1.1
29,5/1/2010 2:20,0,0.6
30,5/1/2010 2:25,0,0.6
31,5/1/2010 2:30,0.6,1.7
32,5/1/2010 2:35,0.6,1.7
33,5/1/2010 2:40,0.7,1.3
34,5/1/2010 2:45,0.4,1.3
35,5/1/2010 2:50,0.2,0.6
36,5/1/2010 2:55,0,0.6
37,5/1/2010 3:00,0,0.6
38,5/1/2010 3:05,0,0.2
39,5/1/2010 3:10,0,0
40,5/1/2010 3:15,0.2,0.6
41,5/1/2010 3:20,0,0
42,5/1/2010 3:25,0,0
43,5/1/2010 3:30,0,0.4
44,5/1/2010 3:35,0.2,0.9
45,5/1/2010 3:40,0,0.7
46,5/1/2010 3:45,0,0.4
47,5/1/2010 3:50,0.2,1.1
48,5/1/2010 3:55,0.6,1.3
49,5/1/2010 4:00,0.2,1.3
50,5/1/2010 4:05,1.1,2
51,5/1/2010 4:10,0.7,2
52,5/1/2010 4:15,0.2,0.9
53,5/1/2010 4:20,0.7,1.3
54,5/1/2010 4:25,1.1,1.7
55,5/1/2010 4:30,0.2,1.1
56,5/1/2010 4:35,0.2,0.7
57,5/1/2010 4:40,0.4,0.9
58,5/1/2010 4:45,0.4,1.1
59,5/1/2010 4:50,0.2,0.7
60,5/1/2010 4:55,0.2,0.7
61,5/1/2010 5:00,0.4,1.3
62,5/1/2010 5:05,0,0.6
63,5/1/2010 5:10,0.2,0.9
64,5/1/2010 5:15,0,0.4
65,5/1/2010 5:20,0.2,0.7
66,5/1/2010 5:25,0,0.6
67,5/1/2010 5:30,0.7,1.5
68,5/1/2010 5:35,0.4,1.1
69,5/1/2010 5:40,0.4,0.7
70,5/1/2010 5:45,0.7,1.1
71,5/1/2010 5:50,0.4,0.9
72,5/1/2010 5:55,0.4,0.9
73,5/1/2010 6:00,0.6,1.1
74,5/1/2010 6:05,0.4,1.3
75,5/1/2010 6:10,0.4,0.7
76,5/1/2010 6:15,0.7,1.7
77,5/1/2010 6:20,1.3,3
78,5/1/2010 6:25,1.7,3
79,5/1/2010 6:30,2,2.8
80,5/1/2010 6:35,1.7,2.6
81,5/1/2010 6:40,1.5,2.8
82,5/1/2010 6:45,1.9,3.2
83,5/1/2010 6:50,2.4,3.5
84,5/1/2010 6:55,2.6,3.5
85,5/1/2010 7:00,2.8,4.5
86,5/1/2010 7:05,2.8,3.9
87,5/1/2010 7:10,3.5,4.8
88,5/1/2010 7:15,2.8,4.6
89,5/1/2010 7:20,2.2,3.9
90,5/1/2010 7:25,2.6,4.6
91,5/1/2010 7:30,2.6,4.6
92,5/1/2010 7:35,3,5.4
93,5/1/2010 7:40,2.4,3.7
94,5/1/2010 7:45,2.8,4.8
95,5/1/2010 7:50,2.4,5
96,5/1/2010 7:55,2.6,4.5
97,5/1/2010 8:00,2.6,4.6
98,5/1/2010 8:05,2.4,4.3
99,5/1/2010 8:10,2,3.9
100,5/1/2010 8:15,2.6,5.2
101,5/1/2010 8:20,2.8,4.1
102,5/1/2010 8:25,2,4.3
103,5/1/2010 8:30,2,3.5
104,5/1/2010 8:35,1.9,3.7
105,5/1/2010 8:40,1.5,3.3
106,5/1/2010 8:45,2,4.3
107,5/1/2010 8:50,1.5,3.5
108,5/1/2010 8:55,1.1,2.6
109,5/1/2010 9:00,0.9,2
110,5/1/2010 9:05,0.6,1.3
111,5/1/2010 9:10,0.7,1.5
112,5/1/2010 9:15,1.1,1.9
113,5/1/2010 9:20,0.6,1.3
114,5/1/2010 9:25,1.1,2.6
115,5/1/2010 9:30,0.4,0.9
116,5/1/2010 9:35,0.9,2.4
117,5/1/2010 9:40,0.7,1.9
118,5/1/2010 9:45,1.1,3
119,5/1/2010 9:50,0.9,2.2
120,5/1/2010 9:55,1.3,2.6
121,5/1/2010 10:00,0.9,2.6
122,5/1/2010 10:05,0.9,1.9
123,5/1/2010 10:10,0.9,2.2
124,5/1/2010 10:15,1.1,2.6
125,5/1/2010 10:20,0.7,2.4
126,5/1/2010 10:25,1.1,2
127,5/1/2010 10:30,1.3,2.8
128,5/1/2010 10:35,0.9,2
129,5/1/2010 10:40,0.7,1.7
130,5/1/2010 10:45,1.3,2.6
131,5/1/2010 10:50,1.7,2.6
132,5/1/2010 10:55,0.9,1.9
133,5/1/2010 11:00,0.7,2
134,5/1/2010 11:05,0.6,1.5
135,5/1/2010 11:10,0.9,2.8
136,5/1/2010 11:15,0.9,2.4
137,5/1/2010 11:20,1.1,2.8
138,5/1/2010 11:25,2.4,4.1
139,5/1/2010 11:30,2.8,5.2
140,5/1/2010 11:35,3.2,4.8
141,5/1/2010 11:40,2.6,4.3
142,5/1/2010 11:45,2.8,4.8
143,5/1/2010 11:50,1.9,4.3
144,5/1/2010 11:55,2.2,3.5
145,5/1/2010 12:00,3.2,4.6
146,5/1/2010 12:05,2.4,4.3
147,5/1/2010 12:10,2.6,3.7
148,5/1/2010 12:15,3.5,5
149,5/1/2010 12:20,2.8,4.8
150,5/1/2010 12:25,2.2,4.3
151,5/1/2010 12:30,2,3.9
152,5/1/2010 12:35,2.2,4.5
153,5/1/2010 12:40,2,3.2
154,5/1/2010 12:45,2,3.3
155,5/1/2010 12:50,1.9,3
156,5/1/2010 12:55,1.7,2.6
157,5/1/2010 13:00,2,3.7
158,5/1/2010 13:05,3,4.3
159,5/1/2010 13:10,2.2,4.3
160,5/1/2010 13:15,1.7,3
161,5/1/2010 13:20,2.2,3.3
162,5/1/2010 13:25,1.7,3
163,5/1/2010 13:30,1.7,3.2
164,5/1/2010 13:35,1.7,2.8
165,5/1/2010 13:40,1.5,2.8
166,5/1/2010 13:45,1.9,3.3
167,5/1/2010 13:50,1.7,3.7
168,5/1/2010 13:55,1.7,3.2
169,5/1/2010 14:00,2.2,4.8
170,5/1/2010 14:05,2.6,4.8
171,5/1/2010 14:10,2.4,3.5
172,5/1/2010 14:15,2.4,3.9
173,5/1/2010 14:20,2.2,3.5
174,5/1/2010 14:25,2.6,3.9
175,5/1/2010 14:30,2.6,3.9
176,5/1/2010 14:35,2.4,3.9
177,5/1/2010 14:40,2.4,3.7
178,5/1/2010 14:45,2.6,4.3
179,5/1/2010 14:50,2.6,3.9
180,5/1/2010 14:55,2.6,4.6
181,5/1/2010 15:00,3.2,4.6
182,5/1/2010 15:05,3.2,5
183,5/1/2010 15:10,3.2,5
184,5/1/2010 15:15,3.3,5.2
185,5/1/2010 15:20,3,5
186,5/1/2010 15:25,3.2,5.4
187,5/1/2010 15:30,3.3,5.8
188,5/1/2010 15:35,3.5,5.9
189,5/1/2010 15:40,3.3,5.6
190,5/1/2010 15:45,3,4.8
191,5/1/2010 15:50,2.4,4.3
192,5/1/2010 15:55,3.3,5.4
193,5/1/2010 16:00,3.2,5
194,5/1/2010 16:05,2.8,5.6
195,5/1/2010 16:10,3.7,5.9
196,5/1/2010 16:15,3.7,5.9
197,5/1/2010 16:20,3.5,5.6
198,5/1/2010 16:25,2.8,4.5
199,5/1/2010 16:30,2.6,5.6
200,5/1/2010 16:35,2.6,4.1
201,5/1/2010 16:40,2.2,3.9
202,5/1/2010 16:45,3,4.5
203,5/1/2010 16:50,2.6,4.5
204,5/1/2010 16:55,2.6,4.3
205,5/1/2010 17:00,2.2,4.3
206,5/1/2010 17:05,1.9,3.2
207,5/1/2010 17:10,2,3.2
208,5/1/2010 17:15,2,3.5
209,5/1/2010 17:20,2,3.7
210,5/1/2010 17:25,2.2,3.5
211,5/1/2010 17:30,2,3.7
212,5/1/2010 17:35,1.9,3
213,5/1/2010 17:40,1.7,3.2
214,5/1/2010 17:45,1.1,2
215,5/1/2010 17:50,1.9,3
216,5/1/2010 17:55,1.1,2.4
217,5/1/2010 18:00,1.3,2.2
218,5/1/2010 18:05,0.6,1.1
219,5/1/2010 18:10,0.9,2
220,5/1/2010 18:15,1.3,2.2
221,5/1/2010 18:20,1.1,1.7
222,5/1/2010 18:25,0.7,1.5
223,5/1/2010 18:30,0.6,3.3
224,5/1/2010 18:35,1.3,3.5
225,5/1/2010 18:40,1.5,3
226,5/1/2010 18:45,1.5,2.8
227,5/1/2010 18:50,1.9,6.3
228,5/1/2010 18:55,1.7,4.1
229,5/1/2010 19:00,2.6,6.5
230,5/1/2010 19:05,2.2,5
231,5/1/2010 19:10,2.8,6.7
232,5/1/2010 19:15,2.2,4.5
233,5/1/2010 19:20,1.5,3.7
234,5/1/2010 19:25,2,4.6
235,5/1/2010 19:30,2,4.1
236,5/1/2010 19:35,2,5.6
237,5/1/2010 19:40,2.2,4.8
238,5/1/2010 19:45,2.4,5
239,5/1/2010 19:50,2.2,4.5
240,5/1/2010 19:55,2.6,5.6
241,5/1/2010 20:00,2,5.2
242,5/1/2010 20:05,2,4.1
243,5/1/2010 20:10,2.2,4.8
244,5/1/2010 20:15,3.2,6.3
245,5/1/2010 20:20,2,4.8
246,5/1/2010 20:25,1.9,4.3
247,5/1/2010 20:30,1.7,3.3
248,5/1/2010 20:35,1.9,5.2
249,5/1/2010 20:40,1.5,3.2
250,5/1/2010 20:45,1.5,3.7
251,5/1/2010 20:50,1.5,4.5
252,5/1/2010 20:55,1.7,3.9
253,5/1/2010 21:00,1.9,4.5
254,5/1/2010 21:05,1.7,3.7
255,5/1/2010 21:10,2.2,4.5
256,5/1/2010 21:15,2.4,3.9
257,5/1/2010 21:20,2,3.7
258,5/1/2010 21:25,2.6,5.4
259,5/1/2010 21:30,2.6,5
260,5/1/2010 21:35,2,4.1
261,5/1/2010 21:40,2.6,5.9
262,5/1/2010 21:45,2.6,4.5
263,5/1/2010 21:50,2.2,5.2
264,5/1/2010 21:55,2.6,5.2
265,5/1/2010 22:00,2.6,5.4
266,5/1/2010 22:05,2,4.1
267,5/1/2010 22:10,1.9,4.1
268,5/1/2010 22:15,2,4.6
269,5/1/2010 22:20,2.6,5.8
270,5/1/2010 22:25,2.8,5.2
271,5/1/2010 22:30,1.7,4.5
272,5/1/2010 22:35,2.4,4.5
273,5/1/2010 22:40,2.4,5.6
274,5/1/2010 22:45,2.4,5.6
275,5/1/2010 22:50,2.2,5.4
276,5/1/2010 22:55,1.9,3.5
277,5/1/2010 23:00,2,4.1
278,5/1/2010 23:05,2,4.6
279,5/1/2010 23:10,1.7,4.1
280,5/1/2010 23:15,2.4,4.3
281,5/1/2010 23:20,2,4.1
282,5/1/2010 23:25,1.7,3.7
283,5/1/2010 23:30,1.3,3
284,5/1/2010 23:35,2.2,4.6
285,5/1/2010 23:40,2.2,4.3
286,5/1/2010 23:45,1.7,3.3
287,5/1/2010 23:50,2.2,4.5
288,5/1/2010 23:55,1.9,3.3
289,5/2/2010 0:00,1.1,3.2
290,5/2/2010 0:05,0.9,1.9
291,5/2/2010 0:10,1.1,2
292,5/2/2010 0:15,1.5,2.4
293,5/2/2010 0:20,1.5,3.2
294,5/2/2010 0:25,1.5,3.2
295,5/2/2010 0:30,1.5,4.1
296,5/2/2010 0:35,1.5,3.3
297,5/2/2010 0:40,1.3,2.8
298,5/2/2010 0:45,0.9,1.9
299,5/2/2010 0:50,0.9,2.4
300,5/2/2010 0:55,0.9,1.9
301,5/2/2010 1:00,0.7,1.5
302,5/2/2010 1:05,1.1,2
303,5/2/2010 1:10,0.7,1.7
304,5/2/2010 1:15,0.7,2.2
305,5/2/2010 1:20,0.9,1.9
306,5/2/2010 1:25,1.1,2.6
307,5/2/2010 1:30,1.1,2.4
308,5/2/2010 1:35,1.1,3
309,5/2/2010 1:40,0.9,1.9
310,5/2/2010 1:45,0.9,2.8
311,5/2/2010 1:50,1.3,2.6
312,5/2/2010 1:55,1.3,3.5
313,5/2/2010 2:00,0.6,2.4
314,5/2/2010 2:05,1.1,3.3
315,5/2/2010 2:10,0.9,2.2
316,5/2/2010 2:15,0.4,1.7
317,5/2/2010 2:20,0.4,0.9
318,5/2/2010 2:25,0.4,0.9
319,5/2/2010 2:30,0.9,2
320,5/2/2010 2:35,0.6,1.1
321,5/2/2010 2:40,0.2,0.6
322,5/2/2010 2:45,0.4,0.7
323,5/2/2010 2:50,0.4,1.3
324,5/2/2010 2:55,0.6,1.3
325,5/2/2010 3:00,0.7,1.5
326,5/2/2010 3:05,0.2,0.7
327,5/2/2010 3:10,0.4,1.1
328,5/2/2010 3:15,0.6,1.9
329,5/2/2010 3:20,0.4,1.5
330,5/2/2010 3:25,1.1,2.2
331,5/2/2010 3:30,0.9,2.4
332,5/2/2010 3:35,1.1,2
333,5/2/2010 3:40,1.1,3
334,5/2/2010 3:45,1.5,3.2
335,5/2/2010 3:50,1.5,2.8
336,5/2/2010 3:55,0.7,1.9
337,5/2/2010 4:00,1.1,2
338,5/2/2010 4:05,0.9,1.9
339,5/2/2010 4:10,0.9,2.4
340,5/2/2010 4:15,0.4,0.9
341,5/2/2010 4:20,0.2,0.7
342,5/2/2010 4:25,0.6,1.3
343,5/2/2010 4:30,0.7,1.5
344,5/2/2010 4:35,0.7,1.9
345,5/2/2010 4:40,0.7,1.9
346,5/2/2010 4:45,0.9,1.9
347,5/2/2010 4:50,1.1,1.9
348,5/2/2010 4:55,0.7,1.9
349,5/2/2010 5:00,0.6,1.9
350,5/2/2010 5:05,0.6,1.9
351,5/2/2010 5:10,0.7,1.9
352,5/2/2010 5:15,0.9,1.9
353,5/2/2010 5:20,0.6,1.5
354,5/2/2010 5:25,0.6,0.9
355,5/2/2010 5:30,0.6,1.3
356,5/2/2010 5:35,0.4,1.1
357,5/2/2010 5:40,0.6,1.3
358,5/2/2010 5:45,0.4,1.1
359,5/2/2010 5:50,0.2,0.7
360,5/2/2010 5:55,0.2,0.6
361,5/2/2010 6:00,0.4,1.1
362,5/2/2010 6:05,0.6,1.1
363,5/2/2010 6:10,0.4,1.3
364,5/2/2010 6:15,0.4,1.1
365,5/2/2010 6:20,0.6,1.3
366,5/2/2010 6:25,0.2,0.7
367,5/2/2010 6:30,0.4,1.1
368,5/2/2010 6:35,0.7,1.7
369,5/2/2010 6:40,1.1,2
370,5/2/2010 6:45,0.2,1.1
371,5/2/2010 6:50,0.4,0.9
372,5/2/2010 6:55,0.7,1.1
373,5/2/2010 7:00,0.2,1.1
374,5/2/2010 7:05,0.2,0.6
375,5/2/2010 7:10,0,0
376,5/2/2010 7:15,0.2,0.6
377,5/2/2010 7:20,0.6,1.3
378,5/2/2010 7:25,0.4,1.1
379,5/2/2010 7:30,0.6,1.5
380,5/2/2010 7:35,0.7,1.9
381,5/2/2010 7:40,0.2,1.1
382,5/2/2010 7:45,0,0.4
383,5/2/2010 7:50,0.4,1.1
384,5/2/2010 7:55,0.4,0.9
385,5/2/2010 8:00,0.6,1.1
386,5/2/2010 8:05,0.6,1.3
387,5/2/2010 8:10,0.6,1.3
388,5/2/2010 8:15,0.6,1.1
389,5/2/2010 8:20,0.4,0.9
390,5/2/2010 8:25,0.6,1.5
391,5/2/2010 8:30,0.9,2.2
392,5/2/2010 8:35,0.9,1.9
393,5/2/2010 8:40,0.7,2.2
394,5/2/2010 8:45,0.2,0.7
395,5/2/2010 8:50,0.6,0.9
396,5/2/2010 8:55,1.1,2
397,5/2/2010 9:00,0.9,1.9
398,5/2/2010 9:05,0.6,0.9
399,5/2/2010 9:10,0.4,0.9
400,5/2/2010 9:15,0.2,0.7
401,5/2/2010 9:20,0.6,1.5
402,5/2/2010 9:25,0.6,1.3
403,5/2/2010 9:30,0.6,1.3
404,5/2/2010 9:35,0.7,1.5
405,5/2/2010 9:40,0.7,1.3
406,5/2/2010 9:45,0.7,1.3
407,5/2/2010 9:50,0.6,1.3
408,5/2/2010 9:55,0.7,1.3
409,5/2/2010 10:00,0.9,2
410,5/2/2010 10:05,1.3,3
411,5/2/2010 10:10,0.9,2.2
412,5/2/2010 10:15,0.9,1.7
413,5/2/2010 10:20,1.9,4.8
414,5/2/2010 10:25,0.7,1.9
415,5/2/2010 10:30,0.6,1.9
416,5/2/2010 10:35,0.7,1.5
417,5/2/2010 10:40,1.1,2.4
418,5/2/2010 10:45,1.1,2.8
419,5/2/2010 10:50,0.7,2
420,5/2/2010 10:55,1.3,3.5
421,5/2/2010 11:00,1.1,3
422,5/2/2010 11:05,1.7,3.9
423,5/2/2010 11:10,2,3.9
424,5/2/2010 11:15,1.3,3.9
425,5/2/2010 11:20,1.5,4.1
426,5/2/2010 11:25,1.5,3.5
427,5/2/2010 11:30,2.4,4.1
428,5/2/2010 11:35,1.5,3
429,5/2/2010 11:40,1.7,3
430,5/2/2010 11:45,1.9,3.2
431,5/2/2010 11:50,1.5,3
432,5/2/2010 11:55,1.5,3.7
433,5/2/2010 12:00,0.9,2.2
434,5/2/2010 12:05,1.7,3.2
435,5/2/2010 12:10,1.9,3.3
436,5/2/2010 12:15,1.5,4.3
437,5/2/2010 12:20,1.9,3.5
438,5/2/2010 12:25,1.1,3
439,5/2/2010 12:30,2.6,4.8
440,5/2/2010 12:35,2.2,4.8
441,5/2/2010 12:40,2,4.3
442,5/2/2010 12:45,2.2,5.4
443,5/2/2010 12:50,2.6,6.9
444,5/2/2010 12:55,2,6.1
445,5/2/2010 13:00,3.5,6.1
446,5/2/2010 13:05,2.4,5
447,5/2/2010 13:10,2.6,4.6
448,5/2/2010 13:15,2.8,4.8
449,5/2/2010 13:20,1.7,3.3
450,5/2/2010 13:25,2.4,4.8
451,5/2/2010 13:30,1.3,3.5
452,5/2/2010 13:35,2.2,4.8
453,5/2/2010 13:40,1.7,4.5
454,5/2/2010 13:45,1.9,4.1
455,5/2/2010 13:50,2,3.9
456,5/2/2010 13:55,1.9,3.9
457,5/2/2010 14:00,2,5
458,5/2/2010 14:05,1.3,3.9
459,5/2/2010 14:10,1.7,4.3
460,5/2/2010 14:15,2.2,4.8
461,5/2/2010 14:20,2,5
462,5/2/2010 14:25,2.4,4.8
463,5/2/2010 14:30,1.7,4.6
464,5/2/2010 14:35,2.6,5.2
465,5/2/2010 14:40,2.8,5.6
466,5/2/2010 14:45,3,5.8
467,5/2/2010 14:50,3.7,6.7
468,5/2/2010 14:55,1.9,4.8
469,5/2/2010 15:00,2,4.6
470,5/2/2010 15:05,1.9,5.2
471,5/2/2010 15:10,1.5,3.2
472,5/2/2010 15:15,2.6,5
473,5/2/2010 15:20,2.8,5.4
474,5/2/2010 15:25,2.4,5.6
475,5/2/2010 15:30,1.9,3.3
476,5/2/2010 15:35,2.6,4.5
477,5/2/2010 15:40,2.4,6.5
478,5/2/2010 15:45,2,4.3
479,5/2/2010 15:50,2.8,5.8
480,5/2/2010 15:55,2,4.1
481,5/2/2010 16:00,2.8,6.5
482,5/2/2010 16:05,2.2,5.6
483,5/2/2010 16:10,3.2,6.7
484,5/2/2010 16:15,2.6,5.8
485,5/2/2010 16:20,2.8,5.2
486,5/2/2010 16:25,2.2,5
487,5/2/2010 16:30,2.4,5
488,5/2/2010 16:35,1.7,4.5
489,5/2/2010 16:40,2.2,5.6
490,5/2/2010 16:45,2.4,5.2
491,5/2/2010 16:50,1.7,3.9
492,5/2/2010 16:55,1.7,3.7
493,5/2/2010 17:00,1.7,3.7
494,5/2/2010 17:05,1.5,3.2
495,5/2/2010 17:10,1.5,3.5
496,5/2/2010 17:15,3.9,7.6
497,5/2/2010 17:20,4.3,7.1
498,5/2/2010 17:25,2.4,5.4
499,5/2/2010 17:30,2.6,7.6
500,5/2/2010 17:35,2.8,7.4
501,5/2/2010 17:40,1.9,5.2
502,5/2/2010 17:45,1.3,2.8
503,5/2/2010 17:50,1.3,4.1
504,5/2/2010 17:55,1.3,2.6
505,5/2/2010 18:00,1.5,4.1
506,5/2/2010 18:05,1.7,3.2
507,5/2/2010 18:10,1.9,4.6
508,5/2/2010 18:15,1.5,4.8
509,5/2/2010 18:20,2.2,4.1
510,5/2/2010 18:25,1.5,2.8
511,5/2/2010 18:30,1.5,3.5
512,5/2/2010 18:35,1.5,3.3
513,5/2/2010 18:40,2,3.9
514,5/2/2010 18:45,1.5,4.3
515,5/2/2010 18:50,1.7,3.2
516,5/2/2010 18:55,2,3.9
517,5/2/2010 19:00,1.7,4.3
518,5/2/2010 19:05,1.7,4.5
519,5/2/2010 19:10,1.7,3.7
520,5/2/2010 19:15,1.9,4.3
521,5/2/2010 19:20,1.7,3.9
522,5/2/2010 19:25,1.5,2.6
523,5/2/2010 19:30,1.9,3.7
524,5/2/2010 19:35,2,4.5
525,5/2/2010 19:40,1.7,4.1
526,5/2/2010 19:45,2.2,4.1
527,5/2/2010 19:50,1.7,4.5
528,5/2/2010 19:55,1.1,2.8
529,5/2/2010 20:00,1.3,3.5
530,5/2/2010 20:05,1.7,3.9
531,5/2/2010 20:10,1.9,4.5
532,5/2/2010 20:15,1.9,5.9
533,5/2/2010 20:20,1.5,3.2
534,5/2/2010 20:25,2.2,3.9
535,5/2/2010 20:30,1.7,4.8
536,5/2/2010 20:35,1.9,3.5
537,5/2/2010 20:40,1.5,3.7
538,5/2/2010 20:45,2.2,5
539,5/2/2010 20:50,1.9,3.7
540,5/2/2010 20:55,2,3.5
541,5/2/2010 21:00,2.2,5.8
542,5/2/2010 21:05,2.2,5.4
543,5/2/2010 21:10,1.7,3.5
544,5/2/2010 21:15,1.7,3.3
545,5/2/2010 21:20,2.2,5.4
546,5/2/2010 21:25,2.4,4.6
547,5/2/2010 21:30,2.8,5.6
548,5/2/2010 21:35,3.2,5.6
549,5/2/2010 21:40,2,4.5
550,5/2/2010 21:45,1.9,4.6
551,5/2/2010 21:50,2.4,5
552,5/2/2010 21:55,2.2,4.3
553,5/2/2010 22:00,2,4.5
554,5/2/2010 22:05,2.8,5.6
555,5/2/2010 22:10,1.9,3.5
556,5/2/2010 22:15,2.2,4.5
557,5/2/2010 22:20,1.9,5
558,5/2/2010 22:25,2.4,4.8
559,5/2/2010 22:30,2,3.9
560,5/2/2010 22:35,1.9,4.1
561,5/2/2010 22:40,2.4,4.8
562,5/2/2010 22:45,2.2,4.8
563,5/2/2010 22:50,1.7,3.3
564,5/2/2010 22:55,1.9,4.3
565,5/2/2010 23:00,2,3.7
566,5/2/2010 23:05,1.9,4.8
567,5/2/2010 23:10,2.6,4.6
568,5/2/2010 23:15,1.9,4.1
569,5/2/2010 23:20,2.8,5.6
570,5/2/2010 23:25,1.7,3.9
571,5/2/2010 23:30,2.2,4.3
572,5/2/2010 23:35,2.2,4.6
573,5/2/2010 23:40,1.9,4.6
574,5/2/2010 23:45,2,4.1
575,5/2/2010 23:50,2.2,4.5
576,5/2/2010 23:55,1.9,3.7
577,5/3/2010 0:00,1.7,3.3
578,5/3/2010 0:05,1.7,3.5
579,5/3/2010 0:10,1.9,5.2
580,5/3/2010 0:15,2.2,4.8
581,5/3/2010 0:20,2,3.9
582,5/3/2010 0:25,1.7,3.5
583,5/3/2010 0:30,1.3,3.3
584,5/3/2010 0:35,1.9,4.8
585,5/3/2010 0:40,1.7,4.5
586,5/3/2010 0:45,1.7,3.7
587,5/3/2010 0:50,2,4.6
588,5/3/2010 0:55,1.3,3.5
589,5/3/2010 1:00,1.5,3.7
590,5/3/2010 1:05,1.9,4.3
591,5/3/2010 1:10,1.7,3.3
592,5/3/2010 1:15,1.3,2.6
593,5/3/2010 1:20,1.3,3.2
594,5/3/2010 1:25,1.9,5.2
595,5/3/2010 1:30,1.9,4.3
596,5/3/2010 1:35,1.5,3.3
597,5/3/2010 1:40,1.9,4.3
598,5/3/2010 1:45,2.2,7.2
599,5/3/2010 1:50,2.4,5.2
600,5/3/2010 1:55,2.8,6.1
601,5/3/2010 2:00,1.9,4.6
602,5/3/2010 2:05,1.9,3.7
603,5/3/2010 2:10,2,4.1
604,5/3/2010 2:15,1.9,4.8
605,5/3/2010 2:20,1.7,3.9
606,5/3/2010 2:25,1.1,3.5
607,5/3/2010 2:30,1.9,4.1
608,5/3/2010 2:35,2.4,4.5
609,5/3/2010 2:40,2.6,5.4
610,5/3/2010 2:45,2.4,4.6
611,5/3/2010 2:50,2.6,5.4
612,5/3/2010 2:55,2.6,5
613,5/3/2010 3:00,2.2,5
614,5/3/2010 3:05,2.2,4.8
615,5/3/2010 3:10,2.4,5
616,5/3/2010 3:15,2.2,4.6
617,5/3/2010 3:20,2,4.3
618,5/3/2010 3:25,2,4.3
619,5/3/2010 3:30,2,3.9
620,5/3/2010 3:35,1.7,4.3
621,5/3/2010 3:40,1.9,3.7
622,5/3/2010 3:45,2.2,3.7
623,5/3/2010 3:50,1.9,3.3
624,5/3/2010 3:55,1.5,3.9
625,5/3/2010 4:00,1.3,2.4
626,5/3/2010 4:05,0.7,1.5
627,5/3/2010 4:10,1.3,3
628,5/3/2010 4:15,1.7,3.2
629,5/3/2010 4:20,1.9,3.3
630,5/3/2010 4:25,2,3.9
631,5/3/2010 4:30,2,5
632,5/3/2010 4:35,2,4.1
633,5/3/2010 4:40,2,4.5
634,5/3/2010 4:45,1.9,3.9
635,5/3/2010 4:50,2,4.3
636,5/3/2010 4:55,2.2,3.5
637,5/3/2010 5:00,2.2,4.5
638,5/3/2010 5:05,2.6,4.5
639,5/3/2010 5:10,2.4,4.8
640,5/3/2010 5:15,2,3.9
641,5/3/2010 5:20,2.4,4.5
642,5/3/2010 5:25,2.4,4.8
643,5/3/2010 5:30,2.2,5.8
644,5/3/2010 5:35,1.9,3.3
645,5/3/2010 5:40,1.9,5.6
646,5/3/2010 5:45,2,4.6
647,5/3/2010 5:50,2,4.1
648,5/3/2010 5:55,1.5,2.8
649,5/3/2010 6:00,1.5,3.2
650,5/3/2010 6:05,1.9,3.9
651,5/3/2010 6:10,2,3.9
652,5/3/2010 6:15,2,4.5
653,5/3/2010 6:20,2,3.9
654,5/3/2010 6:25,1.7,3.5
655,5/3/2010 6:30,1.3,3
656,5/3/2010 6:35,2,4.5
657,5/3/2010 6:40,1.7,3.3
658,5/3/2010 6:45,1.1,3.3
659,5/3/2010 6:50,1.3,2.2
660,5/3/2010 6:55,1.3,3.7
661,5/3/2010 7:00,2,4.3
662,5/3/2010 7:05,1.9,3.5
663,5/3/2010 7:10,1.5,3.5
664,5/3/2010 7:15,1.9,3.7
665,5/3/2010 7:20,2,3.2
666,5/3/2010 7:25,1.1,3.5
667,5/3/2010 7:30,2.2,4.5
668,5/3/2010 7:35,2,4.3
669,5/3/2010 7:40,1.7,3.7
670,5/3/2010 7:45,2,4.5
671,5/3/2010 7:50,2.8,6.3
672,5/3/2010 7:55,3.5,5.9
673,5/3/2010 8:00,2.8,5.8
674,5/3/2010 8:05,3.9,7.2
675,5/3/2010 8:10,3.3,6.9
676,5/3/2010 8:15,3,6.3
677,5/3/2010 8:20,2.4,5.4
678,5/3/2010 8:25,1.9,4.3
679,5/3/2010 8:30,2.2,5.4
680,5/3/2010 8:35,2.2,5.8
681,5/3/2010 8:40,1.9,4.1
682,5/3/2010 8:45,1.5,4.6
683,5/3/2010 8:50,2.6,5.6
684,5/3/2010 8:55,3.7,5.9
685,5/3/2010 9:00,2.6,4.5
686,5/3/2010 9:05,2,4.1
687,5/3/2010 9:10,1.7,4.8
688,5/3/2010 9:15,1.7,5
689,5/3/2010 9:20,2.4,5.9
690,5/3/2010 9:25,2.8,8.2
691,5/3/2010 9:30,3,6.5
692,5/3/2010 9:35,3,7.1
693,5/3/2010 9:40,2,5
694,5/3/2010 9:45,3.5,8.9
695,5/3/2010 9:50,3.2,7.4
696,5/3/2010 9:55,2.4,5.2
697,5/3/2010 10:00,2.4,5.8
698,5/3/2010 10:05,2.8,5.4
699,5/3/2010 10:10,2.2,5.8
700,5/3/2010 10:15,3,6.9
701,5/3/2010 10:20,2.4,5.9
702,5/3/2010 10:25,2.6,6.1
703,5/3/2010 10:30,2.4,6.3
704,5/3/2010 10:35,3,6.1
705,5/3/2010 10:40,2.6,6.9
706,5/3/2010 10:45,2.4,6.9
707,5/3/2010 10:50,2.8,6.7
708,5/3/2010 10:55,3,6.7
709,5/3/2010 11:00,2.8,5.9
710,5/3/2010 11:05,3,6.1
711,5/3/2010 11:10,3,8
712,5/3/2010 11:15,2.8,7.8
713,5/3/2010 11:20,2.4,8
714,5/3/2010 11:25,2.4,5.8
715,5/3/2010 11:30,2.2,5.2
716,5/3/2010 11:35,2.6,7.4
717,5/3/2010 11:40,2.4,5.9
718,5/3/2010 11:45,2.6,6.3
719,5/3/2010 11:50,3.2,6.7
720,5/3/2010 11:55,2.4,4.8
721,5/3/2010 12:00,2.4,4.8
722,5/3/2010 12:05,4.8,10.6
723,5/3/2010 12:10,5.2,9.1
724,5/3/2010 12:15,5.4,9.1
725,5/3/2010 12:20,5.4,11.3
726,5/3/2010 12:25,5.6,10.9
727,5/3/2010 12:30,5,9.1
728,5/3/2010 12:35,3.7,8.5
729,5/3/2010 12:40,4.8,9.3
730,5/3/2010 12:45,4.1,10.2
731,5/3/2010 12:50,4.1,8.7
732,5/3/2010 12:55,2.6,5.6
733,5/3/2010 13:00,2.8,9.8
734,5/3/2010 13:05,3.9,8.5
735,5/3/2010 13:10,3.2,9.5
736,5/3/2010 13:15,3.2,6.3
737,5/3/2010 13:20,2.8,5.9
738,5/3/2010 13:25,2.2,5.8
739,5/3/2010 13:30,4.3,10.4
740,5/3/2010 13:35,3,7.4
741,5/3/2010 13:40,3.7,10.2
742,5/3/2010 13:45,3.5,8
743,5/3/2010 13:50,3.7,8.3
744,5/3/2010 13:55,3.7,8.5
745,5/3/2010 14:00,3.7,8.5
746,5/3/2010 14:05,5,12.2
747,5/3/2010 14:10,5.2,11.7
748,5/3/2010 14:15,5.4,13.2
749,5/3/2010 14:20,4.6,9.6
750,5/3/2010 14:25,3.9,13
751,5/3/2010 14:30,3.3,8.2
752,5/3/2010 14:35,5.2,13.2
753,5/3/2010 14:40,5.2,12.4
754,5/3/2010 14:45,6.1,12.1
755,5/3/2010 14:50,3.9,8.3
756,5/3/2010 14:55,3.9,7.4
757,5/3/2010 15:00,4.1,9.6
758,5/3/2010 15:05,4.1,9.8
759,5/3/2010 15:10,4.1,8.7
760,5/3/2010 15:15,4.1,10.8
761,5/3/2010 15:20,4.5,10.8
762,5/3/2010 15:25,4.1,9.5
763,5/3/2010 15:30,3.9,11.3
764,5/3/2010 15:35,3.5,8.9
765,5/3/2010 15:40,3.7,7.8
766,5/3/2010 15:45,4.1,11.9
767,5/3/2010 15:50,3.7,11.5
768,5/3/2010 15:55,4.1,9.3
769,5/3/2010 16:00,8,15.2
770,5/3/2010 16:05,7.8,12.4
771,5/3/2010 16:10,4.5,13.5
772,5/3/2010 16:15,4.3,8.3
773,5/3/2010 16:20,4.8,8.2
774,5/3/2010 16:25,4.5,9.1
775,5/3/2010 16:30,5.8,9.6
776,5/3/2010 16:35,4.6,9.3
777,5/3/2010 16:40,3,6.5
778,5/3/2010 16:45,4.1,7.4
779,5/3/2010 16:50,3.2,5.4
780,5/3/2010 16:55,3.7,8.3
781,5/3/2010 17:00,4.5,10.4
782,5/3/2010 17:05,5.9,10.2
783,5/3/2010 17:10,4.5,7.6
784,5/3/2010 17:15,4.6,9.3
785,5/3/2010 17:20,6.9,10
786,5/3/2010 17:25,5.8,11.1
787,5/3/2010 17:30,4.5,10.2
788,5/3/2010 17:35,5.2,9.5
789,5/3/2010 17:40,5,11.9
790,5/3/2010 17:45,5.4,10.2
791,5/3/2010 17:50,6.5,10.8
792,5/3/2010 17:55,3.7,8.3
793,5/3/2010 18:00,3.9,8.7
794,5/3/2010 18:05,5.9,11.7
795,5/3/2010 18:10,3.9,8.9
796,5/3/2010 18:15,6.1,11.5
797,5/3/2010 18:20,4.5,10.6
798,5/3/2010 18:25,6.5,13.2
799,5/3/2010 18:30,7.1,13.9
800,5/3/2010 18:35,5.6,10.6
801,5/3/2010 18:40,5.6,12.4
802,5/3/2010 18:45,5,10.2
803,5/3/2010 18:50,6.7,13.7
804,5/3/2010 18:55,6.5,13
805,5/3/2010 19:00,7.2,13.5
806,5/3/2010 19:05,6.9,12.4
807,5/3/2010 19:10,5.4,8.9
808,5/3/2010 19:15,5.8,10.9
809,5/3/2010 19:20,5.6,9.1
810,5/3/2010 19:25,5,9.5
811,5/3/2010 19:30,5.9,10.6
812,5/3/2010 19:35,4.1,8.9
813,5/3/2010 19:40,3.9,8.9
814,5/3/2010 19:45,4.6,8
815,5/3/2010 19:50,4.1,8.9
816,5/3/2010 19:55,6.3,11.1
817,5/3/2010 20:00,6.3,10
818,5/3/2010 20:05,5.9,10.9
819,5/3/2010 20:10,6.5,12.1
820,5/3/2010 20:15,5.6,10
821,5/3/2010 20:20,6.1,10.8
822,5/3/2010 20:25,4.5,10.2
823,5/3/2010 20:30,5.4,9.5
824,5/3/2010 20:35,5,10.6
825,5/3/2010 20:40,5.6,10.4
826,5/3/2010 20:45,5,9.1
827,5/3/2010 20:50,4.6,8.9
828,5/3/2010 20:55,5.4,8.5
829,5/3/2010 21:00,5,9.8
830,5/3/2010 21:05,5.8,10.4
831,5/3/2010 21:10,4.5,9.5
832,5/3/2010 21:15,5,9.1
833,5/3/2010 21:20,4.3,8.7
834,5/3/2010 21:25,5.9,9.8
835,5/3/2010 21:30,5.6,9.6
836,5/3/2010 21:35,5.9,8.5
837,5/3/2010 21:40,5.6,12.1
838,5/3/2010 21:45,5,10.8
839,5/3/2010 21:50,5.2,9.6
840,5/3/2010 21:55,5.4,7.8
841,5/3/2010 22:00,4.6,10.9
842,5/3/2010 22:05,4.3,10.8
843,5/3/2010 22:10,4.6,8
844,5/3/2010 22:15,5,7.6
845,5/3/2010 22:20,4.5,7.4
846,5/3/2010 22:25,3.3,6.9
847,5/3/2010 22:30,5.9,10
848,5/3/2010 22:35,5.9,9.5
849,5/3/2010 22:40,4.1,8.5
850,5/3/2010 22:45,5,8.9
851,5/3/2010 22:50,4.1,7.6
852,5/3/2010 22:55,4.3,7.1
853,5/3/2010 23:00,3.2,6.7
854,5/3/2010 23:05,3,5.6
855,5/3/2010 23:10,3,6.3
856,5/3/2010 23:15,3.2,8.2
857,5/3/2010 23:20,3.7,6.9
858,5/3/2010 23:25,3.2,6.1
859,5/3/2010 23:30,3.7,8.2
860,5/3/2010 23:35,4.5,7.6
861,5/3/2010 23:40,3.5,7.4
862,5/3/2010 23:45,3.7,7.2
863,5/3/2010 23:50,3.2,5.8
864,5/3/2010 23:55,2.8,5
865,5/4/2010 0:00,2.6,5.9
866,5/4/2010 0:05,2.8,5.2
867,5/4/2010 0:10,2.2,5
868,5/4/2010 0:15,2.2,4.3
869,5/4/2010 0:20,2.2,4.1
870,5/4/2010 0:25,2.8,5.4
871,5/4/2010 0:30,2.6,5.9
872,5/4/2010 0:35,2.2,5.8
873,5/4/2010 0:40,1.5,3.9
874,5/4/2010 0:45,1.1,2.6
875,5/4/2010 0:50,1.5,3
876,5/4/2010 0:55,1.3,3
877,5/4/2010 1:00,1.7,4.6
878,5/4/2010 1:05,2.4,5
879,5/4/2010 1:10,2.6,5.2
880,5/4/2010 1:15,3.3,6.7
881,5/4/2010 1:20,3.2,6.1
882,5/4/2010 1:25,2.4,4.3
883,5/4/2010 1:30,2,4.6
884,5/4/2010 1:35,2.2,3.7